Regional Weather Roundup
Issued by NWS Huntsville, AL

Home | Current Version | Previous Version | Text Only | Print | Product List | Glossary On
Versions: 1 2 3 4 5 6 7 8 9 10 11 12 13 14 15 16 17 18 19 20 21 22 23 24 25 26 27 28 29 30 31 32 33 34 35 36 37 38 39 40 41 42 43 44 45 46 47 48 49 50
000
ASUS44 KHUN 230924
RWRHUN

WEATHER ROUNDUP FOR THE TENNESSEE VALLEY
NATIONAL WEATHER SERVICE HUNTSVILLE AL
400 AM CDT WED APR 23 2014

ALZ001>004-231000-
NORTHWEST ALABAMA

CITY           SKY/WX    TMP DP  RH WIND       PRES   REMARKS
SHOALS AIRPORT CLEAR     53  43  68 CALM      29.97R
SHOALS TVA RES   N/A     50 N/A N/A MISG        N/A
$$

ALZ005>007-016-231000-
NORTH CENTRAL ALABAMA

CITY           SKY/WX    TMP DP  RH WIND       PRES   REMARKS
DECATUR AP     CLEAR     50  47  89 CALM      29.95R
HUNTSVILLE AP  CLEAR     56  43  61 N5        29.95R
HUN NWS/UAH      N/A     56  39  54 NE2         N/A
MERIDIANVILLE  CLEAR     48  41  76 CALM      29.95R
VINEMONT AP    FAIR      52  46  78 N3        29.96R
$$

ALZ008>010-231000-
NORTHEAST ALABAMA

CITY           SKY/WX    TMP DP  RH WIND       PRES   REMARKS
ALBERTVILLE    PTCLDY    55  50  82 N7        29.93R
CROSSVILLE       N/A     52 N/A N/A CALM        N/A
FORT PAYNE     FOG       46  45  93 CALM      29.92R VSB 1/2
SCOTTSBORO AP  CLOUDY    48  48 100 CALM      29.94S
SCOTTSBORO HCN   N/A     48 N/A N/A MISG        N/A
VALLEY HEAD      N/A     48 N/A N/A MISG        N/A
$$

TNZ076-096-097-231000-
SOUTHEASTERN MIDDLE TENNESSEE

CITY           SKY/WX    TMP DP  RH WIND       PRES   REMARKS
FAYETTEVILLE   FAIR      51  39  63 N3        29.95R
TULLAHOMA      CLEAR     43  37  81 CALM      29.96R
WINCHESTER     CLEAR     43  43 100 CALM      29.96R
$$

...SURROUNDING SITES...

CITY           SKY/WX    TMP DP  RH WIND       PRES   REMARKS
ATLANTA        CLEAR     59  56  89 NW10      29.86R
ANNISTON       CLOUDY    59  58  96 CALM      29.91R FOG
BIRMINGHAM     CLEAR     58  56  93 CALM      29.93R
CHATTANOOGA    CLEAR     53  43  68 N5        29.92R
CORINTH        FAIR      45  43  93 NW3       29.99R
DALTON         CLEAR     50  50 100 CALM      29.91R
GADSDEN        CLEAR     52  48  87 CALM      29.92R
GOLDEN TRNGL   CLEAR     55  48  76 N6        29.97R
HALEYVILLE     FAIR      53  45  74 N6        29.98R
JACKSON TN     CLEAR     44  38  79 CALM      29.99R
LEWISBURG      FAIR      42  40  93 CALM      29.96R
MEMPHIS        CLEAR     57  41  55 NE10G20   30.00R
MURFREESBORO   FAIR      47  42  82 CALM      29.96R
NASHVILLE      CLEAR     50  39  66 N7        29.98R
OXFORD MS      FAIR      46  41  81 CALM      30.00R
ROME           CLEAR     54  50  86 NW7       29.89R
SAVANNAH       CLEAR     44  43  97 CALM      29.97R
TUPELO         CLEAR     50  43  77 NE8       29.96R
TUSCALOOSA     FOG       55  55 100 CALM      29.93R VSB 1/2
$$

...GULF COAST WEATHER...

CITY           SKY/WX    TMP DP  RH WIND       PRES   REMARKS
GULFPORT       CLEAR     64  60  87 NW3       29.92R FOG
PASCAGOULA     FOG       60  59  96 CALM      29.92R VSB 1/4
MOBILE         CLEAR     59  59 100 NW5       29.92R FOG
GULF SHORES    FOG       60  60  99 CALM      29.91R VSB 1/4
PENSACOLA      CLEAR     62  62 100 CALM      29.90R FOG
DESTIN         CLEAR     65  62  90 NW3       29.88S FOG
PANAMA CITY    CLOUDY    67  66  95 W7        29.89S
APPALACHICOLA  CLOUDY    68  63  84 W5        29.89S
$$




USA.gov is the U.S. government's official web portal to all federal, state and local government web resources and services.